Date String (YYYY-MM-DD hh:mm:ss) UTC,Instrument flags,absolute air pressure of the measurement (hPa),sample flow rate (lpm),inlet stack bypass flow (lpm),air temperature of the measurement (°C),ambient temperature measured by the external sensor (°C),aerosol sample conditioner tube jacket temperature (°C),OPC LED temperature (°C),internal box temperature (°C),relative humidity of the measurement (%),span deviation,mass concentration of particles derived from Lorenz-Mie calculation of OPC scattering (μg/m³),mass concentration of particles derived from Lorenz-Mie calculation of OPC scattering (μg/m³),mass concentration of particles derived from Lorenz-Mie calculation of OPC scattering (μg/m³)
DateTimeUTC,F1_M11,P_M11,Q1_M11,Q2_M11,T1_M11,T2_M11,T3_M11,T4_M11,T5_M11,U1_M11,ZSPAN_M11,X2_M11,X0_M11,X1_M11
2023-09-03 15:00:00,SystemResetWarning,0833.1,5.00,000.00,028.2,027.0,000.0,036.4,029.9,31.6,0000.0,0002.53,0005.95,0001.96
2023-09-03 15:01:00,SystemResetWarning,0833.2,4.98,000.00,028.2,026.5,000.0,036.4,029.7,31.8,0000.0,0002.55,0005.91,0001.99
2023-09-03 15:02:00,SystemResetWarning,0832.9,5.00,000.00,028.1,025.1,000.0,036.3,029.3,32.1,0000.0,0002.58,0005.13,0002.01
2023-09-03 15:03:00,SystemResetWarning,0832.9,5.01,000.00,028.0,024.7,000.0,036.3,029.2,31.8,0000.0,0002.58,0004.93,0002.01
2023-09-03 15:04:00,SystemResetWarning,0833.0,5.01,000.00,027.9,025.0,000.0,036.3,029.2,32.9,0000.0,0002.60,0004.26,0002.01
2023-09-03 15:05:00,SystemResetWarning,0832.9,5.00,000.00,027.9,025.3,000.0,036.3,029.3,33.0,0000.0,0002.62,0004.48,0002.01
2023-09-03 15:06:00,SystemResetWarning,0832.9,5.00,000.00,027.9,025.7,000.0,036.3,029.4,32.4,0000.0,0002.61,0004.53,0002.02
2023-09-03 15:07:00,SystemResetWarning,0832.9,5.00,000.00,027.9,026.0,000.0,036.3,029.5,31.7,0000.0,0002.64,0004.64,0002.04
2023-09-03 15:08:00,SystemResetWarning,0833.2,4.99,000.00,028.0,026.3,000.0,036.4,029.6,30.1,0000.0,0002.63,0004.55,0002.05
2023-09-03 15:09:00,SystemResetWarning,0833.3,5.00,000.00,028.0,026.6,000.0,036.4,029.7,30.8,0000.0,0002.65,0004.60,0002.06
2023-09-03 15:10:00,SystemResetWarning,0833.0,5.00,000.00,028.1,026.8,000.0,036.4,029.8,30.5,0000.0,0002.64,0004.57,0002.06
2023-09-03 15:11:00,SystemResetWarning,0833.1,4.99,000.00,028.1,026.5,000.0,036.4,029.7,30.4,0000.0,0002.61,0004.49,0002.04
2023-09-03 15:12:00,SystemResetWarning,0833.0,4.99,000.00,028.0,025.3,000.0,036.3,029.3,30.7,0000.0,0002.55,0004.30,0002.02
2023-09-03 15:13:00,SystemResetWarning,0833.0,5.01,000.00,027.9,024.7,000.0,036.2,029.2,30.9,0000.0,0002.49,0003.97,0002.02
2023-09-03 15:14:00,SystemResetWarning,0833.0,5.00,000.00,027.9,024.9,000.0,036.2,029.2,31.6,0000.0,0002.50,0003.88,0002.02
2023-09-03 15:15:00,SystemResetWarning,0833.0,5.00,000.00,027.9,025.2,000.0,036.2,029.2,31.7,0000.0,0002.53,0003.90,0002.04
2023-09-03 15:16:00,SystemResetWarning,0833.0,5.01,000.00,027.9,025.6,000.0,036.2,029.4,31.4,0000.0,0002.56,0003.88,0002.07
2023-09-03 15:17:00,SystemResetWarning,0833.0,5.00,000.00,027.9,026.0,000.0,036.3,029.5,32.1,0000.0,0002.60,0003.82,0002.12
2023-09-03 15:18:00,SystemResetWarning,0833.0,5.00,000.00,027.9,026.3,000.0,036.3,029.6,31.8,0000.0,0002.60,0004.02,0002.16
2023-09-03 15:19:00,SystemResetWarning,0832.9,5.00,000.00,028.0,026.5,000.0,036.3,029.7,31.6,0000.0,0002.67,0004.50,0002.20
2023-09-03 15:20:00,SystemResetWarning,0833.0,4.99,000.00,028.0,026.3,000.0,036.3,029.6,31.8,0000.0,0002.71,0004.50,0002.25
2023-09-03 15:21:00,SystemResetWarning,0833.0,4.99,000.00,027.9,025.1,000.0,036.2,029.2,32.1,0000.0,0002.84,0005.26,0002.33
2023-09-03 15:22:00,SystemResetWarning,0832.9,5.01,000.00,027.8,024.5,000.0,036.1,029.0,32.6,0000.0,0002.94,0006.04,0002.40
2023-09-03 15:23:00,SystemResetWarning,0832.9,5.02,000.00,027.8,024.7,000.0,036.1,029.1,33.3,0000.0,0003.06,0007.16,0002.46
2023-09-03 15:24:00,SystemResetWarning,0832.9,4.99,000.00,027.7,025.0,000.0,036.1,029.1,33.7,0000.0,0003.12,0007.32,0002.51
2023-09-03 15:25:00,SystemResetWarning,0832.9,5.00,000.00,027.8,025.4,000.0,036.2,029.3,33.4,0000.0,0003.14,0007.32,0002.56
2023-09-03 15:26:00,SystemResetWarning,0832.9,4.99,000.00,027.8,025.8,000.0,036.2,029.4,32.8,0000.0,0003.17,0007.38,0002.59
2023-09-03 15:27:00,SystemResetWarning,0832.9,5.00,000.00,027.8,026.1,000.0,036.2,029.5,32.9,0000.0,0003.19,0007.38,0002.63
2023-09-03 15:28:00,SystemResetWarning,0832.9,5.00,000.00,027.9,026.4,000.0,036.2,029.6,32.5,0000.0,0003.20,0007.37,0002.65
2023-09-03 15:29:00,SystemResetWarning,0833.0,5.01,000.00,027.9,026.7,000.0,036.3,029.7,33.1,0000.0,0003.22,0007.31,0002.66
2023-09-03 15:30:00,SystemResetWarning,0832.9,5.00,000.00,028.0,026.6,000.0,036.2,029.7,33.2,0000.0,0003.23,0007.08,0002.66
2023-09-03 15:31:00,SystemResetWarning,0833.1,4.98,000.00,027.9,025.4,000.0,036.2,029.2,33.5,0000.0,0003.22,0007.08,0002.66
2023-09-03 15:32:00,SystemResetWarning,0833.2,5.01,000.00,027.8,024.6,000.0,036.1,029.1,33.8,0000.0,0003.20,0006.69,0002.64
2023-09-03 15:33:00,SystemResetWarning,0833.3,5.01,000.00,027.8,024.8,000.0,036.1,029.1,33.4,0000.0,0003.21,0006.25,0002.64
2023-09-03 15:34:00,SystemResetWarning,0833.2,5.01,000.00,027.8,025.1,000.0,036.1,029.1,33.3,0000.0,0003.20,0005.06,0002.64
2023-09-03 15:35:00,SystemResetWarning,0833.1,5.00,000.00,027.8,025.5,000.0,036.1,029.3,32.6,0000.0,0003.21,0005.07,0002.64
2023-09-03 15:36:00,SystemResetWarning,0832.9,5.00,000.00,027.8,025.8,000.0,036.2,029.4,32.9,0000.0,0003.22,0006.42,0002.64
2023-09-03 15:37:00,SystemResetWarning,0832.9,5.01,000.00,027.8,026.1,000.0,036.2,029.5,33.2,0000.0,0003.21,0006.98,0002.66
2023-09-03 15:38:00,SystemResetWarning,0832.9,5.00,000.00,027.9,026.4,000.0,036.2,029.6,33.2,0000.0,0003.21,0007.17,0002.65
2023-09-03 15:39:00,SystemResetWarning,0832.9,5.00,000.00,027.9,026.7,000.0,036.2,029.7,32.4,0000.0,0003.23,0007.30,0002.64
2023-09-03 15:40:00,SystemResetWarning,0833.0,4.99,000.00,028.0,026.2,000.0,036.2,029.5,31.9,0000.0,0003.26,0007.38,0002.64
2023-09-03 15:41:00,SystemResetWarning,0833.3,4.99,000.00,027.9,025.0,000.0,036.1,029.1,32.9,0000.0,0003.26,0007.32,0002.66
2023-09-03 15:42:00,SystemResetWarning,0833.3,5.01,000.00,027.8,024.6,000.0,036.1,029.0,31.9,0000.0,0003.26,0007.26,0002.68
2023-09-03 15:43:00,SystemResetWarning,0832.9,5.01,000.00,027.7,024.9,000.0,036.1,029.1,31.8,0000.0,0003.26,0007.30,0002.69
2023-09-03 15:44:00,SystemResetWarning,0833.2,5.00,000.00,027.7,025.2,000.0,036.1,029.2,31.7,0000.0,0003.26,0007.28,0002.69
2023-09-03 15:45:00,SystemResetWarning,0833.1,4.99,000.00,027.8,025.6,000.0,036.1,029.3,31.7,0000.0,0003.25,0007.24,0002.69
2023-09-03 15:46:00,SystemResetWarning,0833.4,4.99,000.00,027.8,026.0,000.0,036.1,029.4,32.2,0000.0,0003.23,0007.48,0002.68
2023-09-03 15:47:00,SystemResetWarning,0833.2,5.00,000.00,027.8,026.3,000.0,036.2,029.5,32.2,0000.0,0003.23,0006.62,0002.68
2023-09-03 15:48:00,SystemResetWarning,0833.4,5.00,000.00,027.9,026.6,000.0,036.2,029.6,32.4,0000.0,0003.25,0006.30,0002.67
2023-09-03 15:49:00,SystemResetWarning,0833.3,5.00,000.00,027.9,026.6,000.0,036.2,029.7,31.9,0000.0,0003.27,0006.25,0002.68
2023-09-03 15:50:00,SystemResetWarning,0832.8,4.99,000.00,027.9,025.7,000.0,036.1,029.3,32.0,0000.0,0003.29,0006.99,0002.69
2023-09-03 15:51:00,SystemResetWarning,0832.8,5.00,000.00,027.8,024.7,000.0,036.1,029.0,32.4,0000.0,0003.27,0006.86,0002.70
2023-09-03 15:52:00,SystemResetWarning,0832.7,5.01,000.00,027.7,024.7,000.0,036.1,029.0,33.3,0000.0,0003.26,0006.82,0002.70
2023-09-03 15:53:00,SystemResetWarning,0832.8,5.00,000.00,027.7,025.0,000.0,036.1,029.0,33.2,0000.0,0003.28,0006.86,0002.70
2023-09-03 15:54:00,SystemResetWarning,0832.7,4.99,000.00,027.7,025.4,000.0,036.1,029.2,33.3,0000.0,0003.31,0006.95,0002.70
2023-09-03 15:55:00,SystemResetWarning,0832.8,5.00,000.00,027.7,025.8,000.0,036.1,029.3,33.3,0000.0,0003.35,0007.24,0002.72
2023-09-03 15:56:00,SystemResetWarning,0832.8,5.00,000.00,027.8,026.1,000.0,036.1,029.5,33.6,0000.0,0003.38,0007.34,0002.74
2023-09-03 15:57:00,SystemResetWarning,0832.8,5.00,000.00,027.9,026.4,000.0,036.2,029.6,33.6,0000.0,0003.42,0007.06,0002.76
2023-09-03 15:58:00,SystemResetWarning,0832.8,5.01,000.00,027.9,026.7,000.0,036.2,029.7,32.8,0000.0,0003.45,0007.25,0002.79
2023-09-03 15:59:00,SystemResetWarning,0832.7,4.98,000.00,027.9,026.4,000.0,036.2,029.6,32.2,0000.0,0003.45,0006.87,0002.83
